[ hide orbit diagram ]
For accurate long-term ephemerides, please instead use our Horizons system.This orbit viewer was implemented using two-body methods, and hence should not be used for determining accurate long-term trajectories (over several years or decades) or planetary encounter circumstances.
Orbital Elements at Epoch 2459200.5 (2020-Dec-17.0) TDB
Reference: JPL 26 (heliocentric ecliptic J2000)
Element | Value | Uncertainty (1-sigma) | Units |
e | .1877688727500868 | 3.5896e-08 | |
a | 2.426440567029941 | 8.787e-09 | au |
q | 1.970830556963648 | 8.8009e-08 | au |
i | 13.09114436325908 | 5.6758e-06 | deg |
node | 77.67706058380945 | 1.8793e-05 | deg |
peri | 52.3855187687351 | 2.5603e-05 | deg |
M | 325.6478508862488 | 1.6337e-05 | deg |
tp | 2459332.235955469197 (2021-Apr-27.73595547) | 6.294e-05 | TDB |
period | 1380.552460105814 3.78 | 7.4992e-06 2.053e-08 | d yr |
n | .2607651722067899 | 1.4165e-09 | deg/d |
Q | 2.882050577096235 | 1.0437e-08 | au |
|
| | Orbit Determination Parameters
Additional Information
|
[ show covariance matrix ]
Physical Parameter Table
Parameter |
Symbol |
Value |
Units |
Sigma |
Reference |
Notes |
absolute magnitude |
H |
14.8 |
|
n/a |
MPO432135 |
|
diameter |
diameter |
2.216 |
km |
0.155 |
urn:nasa:pds:neowise_diameters_albedos::2.0[mainbelt] (http://adsabs.harvard.edu/abs/2011ApJ...741...68M) |
|
geometric albedo |
albedo |
0.394 |
|
0.125 |
urn:nasa:pds:neowise_diameters_albedos::2.0[mainbelt] (http://adsabs.harvard.edu/abs/2011ApJ...741...68M) |
|
|
58094 (1972 AP) Discovered 1972-Jan-14 by Kohoutek, L. at Bergedorf |
Reference: 20030614/Numbers.arc | Last Updated: 2004-04-19 |
|
[ hide close-approach data ]
Close-Approach Data ...sorted by Date/Time (TDB)
|
Date/Time (TDB) |
Time Uncertainty (days_HH:MM) |
Body |
Nominal Distance (au) |
Minimum Distance (au) |
Maximum Distance (au) |
V-relative (km/s) |
V-infinity (km/s) |
JD (TDB) |
Time Uncertainty (minutes) |
Semi-major axis (km) |
Semi-minor axis (km) |
range-LOV angle (deg) |
N-sigma |
BP |
Orbit Ref. |
Reference |
Modified |
1954-Aug-05 20:51 |
< 00:01 |
Eunom |
0.0140575208632966 |
0.0140497587933645 |
0.0140652831826839 |
8.652807746318 |
8.65280763091207 |
2434960.368873525 |
0.500924271681897 |
398.322893874749 |
56.013704559708 |
-13.8432042842516 |
10338.4716829703 |
T |
26 |
CATAB v2.0f-lin.ifort 2021-Apr-13 11:28:01 |
2021-Apr-13 11:28 |
2049-Mar-03 03:19 |
< 00:01 |
Eunom |
0.0443331687646502 |
0.0443290085218562 |
0.044337329195838 |
8.7532673679354 |
8.75326733176153 |
2469503.638188524 |
0.398231972398965 |
255.442872532291 |
53.3174912443177 |
36.6422940425408 |
77086.6567731413 |
T |
26 |
CATAB v2.0f-lin.ifort 2021-Apr-13 11:28:01 |
2021-Apr-13 11:28 |
|
Alternate Designations
1972 AP = 1999 JV88 = 2001 UP51 |
|
|